| time (UTC) | temp F | wind direction | speed knots | gust knots | rain 1hr in | rain 24hr in | rain mn in | humidity % | barometer mb |
| 20260507180510 | 47 | 21 | 3.5 | 6.1 | 0.01 | 0.72 | 0.56 | 89 | 1019.3 |
| 20260507175509 | 47 | 22 | 4.3 | 8.7 | 0.01 | 0.72 | 0.56 | 89 | 1019.3 |
| 20260507174509 | 47 | 22 | 4.3 | 8.7 | 0.01 | 0.72 | 0.56 | 89 | 1019.3 |
| 20260507171509 | 47 | 44 | 4.3 | 9.6 | 0.00 | 0.71 | 0.55 | 89 | 1018.9 |
| 20260507170509 | 47 | 40 | 3.5 | 7.0 | 0.00 | 0.71 | 0.55 | 89 | 1018.7 |
| 20260507165509 | 47 | 32 | 3.5 | 6.1 | 0.00 | 0.71 | 0.55 | 89 | 1018.7 |
| 20260507164509 | 47 | 32 | 3.5 | 6.1 | 0.00 | 0.71 | 0.55 | 89 | 1018.7 |
| 20260507163510 | 47 | 5 | 4.3 | 8.7 | 0.00 | 0.71 | 0.55 | 89 | 1018.6 |
| 20260507162510 | 48 | 15 | 3.5 | 8.7 | 0.00 | 0.71 | 0.55 | 89 | 1018.5 |
| 20260507161510 | 48 | 15 | 3.5 | 8.7 | 0.00 | 0.71 | 0.55 | 89 | 1018.5 |
| 20260507160509 | 48 | 36 | 4.3 | 9.6 | 0.00 | 0.71 | 0.55 | 89 | 1018.4 |
| 20260507154510 | 48 | 13 | 3.5 | 7.0 | 0.00 | 0.71 | 0.55 | 89 | 1018.5 |
| 20260507153510 | 48 | 23 | 4.3 | 7.8 | 0.00 | 0.71 | 0.55 | 89 | 1018.2 |
| 20260507151509 | 48 | 58 | 6.1 | 9.6 | 0.00 | 0.71 | 0.55 | 89 | 1018.2 |
| 20260507150513 | 48 | 28 | 6.1 | 10.4 | 0.00 | 0.71 | 0.55 | 89 | 1018.1 |
| 20260507145510 | 48 | 46 | 5.2 | 8.7 | 0.00 | 0.71 | 0.55 | 89 | 1018.0 |
| 20260507144509 | 48 | 46 | 5.2 | 8.7 | 0.00 | 0.71 | 0.55 | 89 | 1018.0 |
| 20260507143509 | 48 | 48 | 4.3 | 9.6 | 0.00 | 0.71 | 0.55 | 88 | 1018.0 |
| 20260507142509 | 48 | 56 | 6.1 | 10.4 | 0.00 | 0.71 | 0.55 | 89 | 1017.8 |
| 20260507140509 | 48 | 49 | 5.2 | 10.4 | 0.00 | 0.71 | 0.55 | 89 | 1017.7 |
| 20260507135509 | 48 | 38 | 5.2 | 9.6 | 0.00 | 0.71 | 0.55 | 89 | 1017.6 |
| 20260507134509 | 48 | 38 | 5.2 | 9.6 | 0.00 | 0.71 | 0.55 | 89 | 1017.6 |
| 20260507133509 | 48 | 14 | 5.2 | 9.6 | 0.01 | 0.71 | 0.55 | 89 | 1017.6 |
| 20260507132509 | 48 | 67 | 5.2 | 9.6 | 0.02 | 0.71 | 0.55 | 90 | 1017.4 |
| 20260507131509 | 48 | 67 | 5.2 | 9.6 | 0.02 | 0.71 | 0.55 | 90 | 1017.4 |
| 20260507130510 | 48 | 54 | 5.2 | 10.4 | 0.02 | 0.71 | 0.55 | 89 | 1017.3 |
| 20260507124509 | 48 | 5 | 5.2 | 8.7 | 0.02 | 0.71 | 0.55 | 90 | 1017.3 |
| 20260507121509 | 48 | 53 | 5.2 | 8.7 | 0.02 | 0.69 | 0.54 | 89 | 1016.9 |
| 20260507115509 | 48 | 346 | 6.1 | 9.6 | 0.02 | 0.69 | 0.53 | 89 | 1016.4 |
| 20260507113509 | 48 | 52 | 5.2 | 8.7 | 0.02 | 0.69 | 0.53 | 90 | 1016.3 |
| 20260507110509 | 48 | 5 | 5.2 | 9.6 | 0.01 | 0.68 | 0.52 | 90 | 1016.1 |
| 20260507105509 | 47 | 27 | 5.2 | 8.7 | 0.00 | 0.67 | 0.51 | 90 | 1016.1 |
| 20260507104509 | 47 | 27 | 5.2 | 8.7 | 0.00 | 0.67 | 0.51 | 90 | 1016.1 |
| 20260507102509 | 47 | 38 | 5.2 | 9.6 | 0.00 | 0.67 | 0.51 | 90 | 1015.8 |
| 20260507101509 | 47 | 38 | 5.2 | 9.6 | 0.00 | 0.67 | 0.51 | 90 | 1015.8 |
| 20260507100509 | 47 | 42 | 5.2 | 10.4 | 0.01 | 0.67 | 0.51 | 90 | 1015.7 |
| 20260507095509 | 47 | 25 | 4.3 | 9.6 | 0.02 | 0.67 | 0.51 | 90 | 1015.6 |
| 20260507094509 | 47 | 25 | 4.3 | 9.6 | 0.02 | 0.67 | 0.51 | 90 | 1015.6 |
| 20260507093509 | 47 | 61 | 6.1 | 11.3 | 0.02 | 0.67 | 0.51 | 90 | 1015.4 |
| 20260507092509 | 46 | 63 | 6.1 | 10.4 | 0.03 | 0.67 | 0.51 | 90 | 1015.1 |
| 20260507091509 | 46 | 63 | 6.1 | 10.4 | 0.03 | 0.67 | 0.51 | 90 | 1015.1 |
| 20260507090509 | 47 | 51 | 5.2 | 10.4 | 0.06 | 0.66 | 0.50 | 90 | 1014.9 |
| 20260507085509 | 46 | 51 | 7.0 | 11.3 | 0.10 | 0.65 | 0.50 | 90 | 1014.8 |
| 20260507084509 | 46 | 51 | 7.0 | 11.3 | 0.10 | 0.65 | 0.50 | 90 | 1014.8 |
| 20260507083509 | 46 | 14 | 4.3 | 9.6 | 0.13 | 0.65 | 0.49 | 90 | 1014.6 |
| 20260507082509 | 46 | 40 | 3.5 | 7.8 | 0.14 | 0.64 | 0.48 | 90 | 1014.5 |
| 20260507081509 | 46 | 40 | 3.5 | 7.8 | 0.14 | 0.64 | 0.48 | 90 | 1014.5 |
| 20260507080509 | 46 | 40 | 3.5 | 7.8 | 0.13 | 0.61 | 0.45 | 90 | 1014.5 |
| 20260507075509 | 46 | 45 | 5.2 | 10.4 | 0.09 | 0.55 | 0.39 | 90 | 1014.3 |
| 20260507074509 | 46 | 45 | 5.2 | 10.4 | 0.09 | 0.55 | 0.39 | 90 | 1014.3 |
| 20260507073509 | 46 | 36 | 6.1 | 9.6 | 0.06 | 0.51 | 0.35 | 90 | 1014.2 |
| 20260507072509 | 46 | 46 | 5.2 | 8.7 | 0.06 | 0.50 | 0.34 | 90 | 1014.0 |
| 20260507071509 | 46 | 46 | 5.2 | 8.7 | 0.06 | 0.50 | 0.34 | 90 | 1014.0 |
| 20260507070509 | 46 | 11 | 6.1 | 11.3 | 0.05 | 0.47 | 0.31 | 90 | 1013.8 |
| 20260507065509 | 46 | 44 | 3.5 | 8.7 | 0.06 | 0.46 | 0.31 | 90 | 1013.8 |
| 20260507064509 | 46 | 44 | 3.5 | 8.7 | 0.06 | 0.46 | 0.31 | 90 | 1013.8 |
| 20260507063509 | 46 | 44 | 4.3 | 7.8 | 0.07 | 0.45 | 0.29 | 90 | 1013.5 |
| 20260507062509 | 46 | 59 | 4.3 | 8.7 | 0.08 | 0.43 | 0.28 | 90 | 1013.4 |
| 20260507061509 | 46 | 59 | 4.3 | 8.7 | 0.08 | 0.43 | 0.28 | 90 | 1013.4 |
| 20260507060509 | 46 | 31 | 5.2 | 8.7 | 0.08 | 0.43 | 0.27 | 90 | 1013.2 |
| 20260507055509 | 46 | 42 | 5.2 | 10.4 | 0.06 | 0.40 | 0.24 | 90 | 1013.0 |
| 20260507054509 | 46 | 42 | 5.2 | 10.4 | 0.06 | 0.40 | 0.24 | 90 | 1013.0 |
| 20260507053509 | 46 | 38 | 6.1 | 12.2 | 0.05 | 0.38 | 0.22 | 90 | 1012.9 |
| 20260507052509 | 47 | 34 | 6.1 | 12.2 | 0.03 | 0.35 | 0.20 | 89 | 1012.7 |
| 20260507050509 | 48 | 48 | 5.2 | 8.7 | 0.03 | 0.35 | 0.19 | 90 | 1012.6 |
| 20260507045509 | 48 | 65 | 5.2 | 8.7 | 0.03 | 0.34 | 0.18 | 90 | 1012.4 |
| 20260507044509 | 48 | 65 | 5.2 | 8.7 | 0.03 | 0.34 | 0.18 | 90 | 1012.4 |
| 20260507043509 | 48 | 51 | 4.3 | 10.4 | 0.02 | 0.33 | 0.17 | 90 | 1012.3 |
| 20260507041509 | 48 | 46 | 5.2 | 8.7 | 0.02 | 0.32 | 0.17 | 90 | 1012.2 |
| 20260507035509 | 48 | 64 | 6.1 | 9.6 | 0.01 | 0.31 | 0.15 | 90 | 1012.0 |
| 20260507034509 | 48 | 64 | 6.1 | 9.6 | 0.01 | 0.31 | 0.15 | 90 | 1012.0 |
| 20260507033509 | 48 | 17 | 5.2 | 10.4 | 0.01 | 0.31 | 0.15 | 90 | 1011.8 |
| 20260507032509 | 48 | 21 | 4.3 | 7.8 | 0.01 | 0.31 | 0.15 | 90 | 1011.9 |
| 20260507031509 | 48 | 21 | 4.3 | 7.8 | 0.01 | 0.31 | 0.15 | 90 | 1011.9 |
| 20260507030509 | 48 | 27 | 4.3 | 7.8 | 0.02 | 0.31 | 0.15 | 90 | 1011.8 |
| 20260507025509 | 49 | 25 | 3.5 | 7.0 | 0.02 | 0.31 | 0.14 | 90 | 1011.8 |
| 20260507024509 | 49 | 25 | 3.5 | 7.0 | 0.02 | 0.31 | 0.14 | 90 | 1011.8 |
| 20260507023509 | 49 | 26 | 3.5 | 7.8 | 0.02 | 0.31 | 0.14 | 90 | 1011.7 |
| 20260507022509 | 49 | 42 | 3.5 | 7.0 | 0.02 | 0.31 | 0.14 | 90 | 1011.8 |
| 20260507021509 | 49 | 42 | 3.5 | 7.0 | 0.02 | 0.31 | 0.14 | 90 | 1011.8 |
| 20260507020509 | 49 | 53 | 4.3 | 8.7 | 0.01 | 0.29 | 0.13 | 89 | 1011.6 |
| 20260507015509 | 49 | 38 | 3.5 | 7.8 | 0.00 | 0.29 | 0.12 | 90 | 1011.4 |
| 20260507014509 | 49 | 38 | 3.5 | 7.8 | 0.00 | 0.29 | 0.12 | 90 | 1011.4 |
| 20260507013509 | 49 | 36 | 4.3 | 8.7 | 0.00 | 0.29 | 0.12 | 90 | 1011.1 |
| 20260507012509 | 49 | 5 | 3.5 | 7.0 | 0.00 | 0.29 | 0.12 | 90 | 1011.1 |
| 20260507010509 | 49 | 45 | 3.5 | 7.8 | 0.00 | 0.29 | 0.12 | 90 | 1011.0 |
| 20260507005508 | 50 | 42 | 4.3 | 7.8 | 0.00 | 0.29 | 0.12 | 90 | 1010.8 |
| 20260507004509 | 50 | 42 | 4.3 | 7.8 | 0.00 | 0.29 | 0.12 | 90 | 1010.8 |
| 20260507003509 | 50 | 34 | 3.5 | 7.0 | 0.01 | 0.29 | 0.12 | 90 | 1010.8 |
| 20260507002508 | 50 | 50 | 4.3 | 7.0 | 0.01 | 0.29 | 0.12 | 90 | 1010.8 |
| 20260507001508 | 50 | 50 | 4.3 | 7.0 | 0.01 | 0.29 | 0.12 | 90 | 1010.8 |
| 20260507000508 | 50 | 355 | 5.2 | 9.6 | 0.01 | 0.29 | 0.12 | 89 | 1010.7 |
| 20260506235509 | 51 | 41 | 5.2 | 7.8 | 0.01 | 0.30 | 0.12 | 89 | 1010.4 |
| 20260506234509 | 51 | 41 | 5.2 | 7.8 | 0.01 | 0.30 | 0.12 | 89 | 1010.4 |
| 20260506233509 | 51 | 47 | 4.3 | 10.4 | 0.04 | 0.29 | 0.11 | 89 | 1010.2 |
| 20260506232508 | 51 | 49 | 4.3 | 9.6 | 0.07 | 0.29 | 0.11 | 89 | 1010.4 |
| 20260506231508 | 51 | 49 | 4.3 | 9.6 | 0.07 | 0.29 | 0.11 | 89 | 1010.4 |
| 20260506225508 | 51 | 55 | 4.3 | 8.7 | 0.11 | 0.35 | 0.11 | 89 | 1010.5 |
| 20260506224509 | 51 | 55 | 4.3 | 8.7 | 0.11 | 0.35 | 0.11 | 89 | 1010.5 |
| 20260506223508 | 51 | 61 | 5.2 | 7.8 | 0.10 | 0.31 | 0.07 | 88 | 1010.3 |
| 20260506222508 | 52 | 81 | 3.5 | 8.7 | 0.13 | 0.28 | 0.04 | 88 | 1010.2 |
| 20260506220508 | 52 | 78 | 1.7 | 4.3 | 0.20 | 0.28 | 0.04 | 88 | 1010.4 |
| 20260506215508 | 52 | 71 | 4.3 | 8.7 | 0.16 | 0.47 | 0.47 | 87 | 1010.4 |
| 20260506214508 | 52 | 71 | 4.3 | 8.7 | 0.16 | 0.47 | 0.47 | 87 | 1010.4 |
| 20260506213509 | 53 | 57 | 5.2 | 9.6 | 0.13 | 0.44 | 0.44 | 87 | 1010.1 |
| 20260506212508 | 54 | 44 | 4.3 | 9.6 | 0.07 | 0.39 | 0.39 | 86 | 1010.0 |
| 20260506210508 | 54 | 339 | 3.5 | 9.6 | 0.00 | 0.31 | 0.31 | 85 | 1010.3 |
| 20260506205508 | 54 | 348 | 3.5 | 7.0 | 0.00 | 0.45 | 0.31 | 85 | 1010.0 |
| 20260506204508 | 54 | 348 | 3.5 | 7.0 | 0.00 | 0.45 | 0.31 | 85 | 1010.0 |
| 20260506202508 | 54 | 337 | 1.7 | 4.3 | 0.00 | 0.45 | 0.31 | 86 | 1009.7 |
| 20260506201508 | 54 | 337 | 1.7 | 4.3 | 0.00 | 0.45 | 0.31 | 86 | 1009.7 |
| 20260506194508 | 54 | 40 | 1.7 | 4.3 | 0.00 | 0.46 | 0.31 | 85 | 1009.2 |
| 20260506193508 | 54 | 57 | 2.6 | 5.2 | 0.00 | 0.46 | 0.31 | 85 | 1009.0 |
| 20260506192508 | 55 | 24 | 2.6 | 7.8 | 0.00 | 0.46 | 0.31 | 84 | 1008.9 |
| 20260506190508 | 55 | 56 | 2.6 | 4.3 | 0.00 | 0.46 | 0.31 | 84 | 1008.7 |
| 20260506185508 | 56 | 59 | 3.5 | 8.7 | 0.00 | 0.46 | 0.31 | 83 | 1008.6 |
| 20260506184508 | 56 | 59 | 3.5 | 8.7 | 0.00 | 0.46 | 0.31 | 83 | 1008.6 |
| 20260506183508 | 56 | 46 | 3.5 | 7.0 | 0.00 | 0.46 | 0.31 | 82 | 1008.4 |
| 20260506181508 | 57 | 44 | 4.3 | 10.4 | 0.00 | 0.46 | 0.31 | 82 | 1008.4 |